owner,sensor,date,latitude,longitude,vertical_datum,wind_speed,wind_to_direction,wind_speed_of_gust,qcFlag 
NDBC,ioos:station:NOAA.NDBC:SANF1:1,2015-03-01T00:50:00Z,24.4560,-81.8770,45.4,6.7,70.0,7.7,'1111122,1111122,1111122' 
NDBC,ioos:station:NOAA.NDBC:SANF1:1,2015-03-01T01:50:00Z,24.4560,-81.8770,45.4,7.7,70.0,8.8,'1111122,1111122,1111122' 
NDBC,ioos:station:NOAA.NDBC:SANF1:1,2015-03-01T02:50:00Z,24.4560,-81.8770,45.4,7.2,80.0,8.2,'1111122,1111122,1111122' 
NDBC,ioos:station:NOAA.NDBC:SANF1:1,2015-03-01T03:50:00Z,24.4560,-81.8770,45.4,8.2,80.0,10.3,'1111122,1111122,1111122' 
NDBC,ioos:station:NOAA.NDBC:SANF1:1,2015-03-01T04:50:00Z,24.4560,-81.8770,45.4,8.2,70.0,9.3,'1111122,1111122,1111122' 
NDBC,ioos:station:NOAA.NDBC:SANF1:1,2015-03-01T05:50:00Z,24.4560,-81.8770,45.4,8.2,70.0,9.8,'1111122,1111122,1111122' 
NDBC,ioos:station:NOAA.NDBC:SANF1:1,2015-03-01T06:50:00Z,24.4560,-81.8770,45.4,8.2,70.0,9.3,'1111122,1111122,1111122' 
NDBC,ioos:station:NOAA.NDBC:SANF1:1,2015-03-01T07:50:00Z,24.4560,-81.8770,45.4,7.7,80.0,8.8,'1111122,1111122,1111122' 
NDBC,ioos:station:NOAA.NDBC:SANF1:1,2015-03-01T08:50:00Z,24.4560,-81.8770,45.4,8.8,80.0,10.3,'1111122,1111122,1111122' 
NDBC,ioos:station:NOAA.NDBC:SANF1:1,2015-03-01T09:50:00Z,24.4560,-81.8770,45.4,7.7,80.0,8.8,'1111122,1111122,1111122' 
NDBC,ioos:station:NOAA.NDBC:SANF1:1,2015-03-01T10:50:00Z,24.4560,-81.8770,45.4,8.2,70.0,9.8,'1111122,1111122,1111122' 
NDBC,ioos:station:NOAA.NDBC:SANF1:1,2015-03-01T11:50:00Z,24.4560,-81.8770,45.4,8.8,70.0,9.8,'1111122,1111122,1111122' 
NDBC,ioos:station:NOAA.NDBC:SANF1:1,2015-03-01T12:50:00Z,24.4560,-81.8770,45.4,8.2,70.0,9.3,'1111122,1111122,1111122' 
NDBC,ioos:station:NOAA.NDBC:SANF1:1,2015-03-01T13:50:00Z,24.4560,-81.8770,45.4,8.8,80.0,10.3,'1111122,1111122,1111122' 
NDBC,ioos:station:NOAA.NDBC:SANF1:1,2015-03-01T14:50:00Z,24.4560,-81.8770,45.4,8.8,80.0,9.8,'1111122,1111122,1111122' 
NDBC,ioos:station:NOAA.NDBC:SANF1:1,2015-03-01T15:50:00Z,24.4560,-81.8770,45.4,7.2,100.0,8.8,'1111122,1111122,1111122' 
NDBC,ioos:station:NOAA.NDBC:SANF1:1,2015-03-01T16:50:00Z,24.4560,-81.8770,45.4,6.7,100.0,7.7,'1111122,1111122,1111122' 
NDBC,ioos:station:NOAA.NDBC:SANF1:1,2015-03-01T17:50:00Z,24.4560,-81.8770,45.4,6.2,90.0,7.2,'1111122,1111122,1111122' 
NDBC,ioos:station:NOAA.NDBC:SANF1:1,2015-03-01T18:50:00Z,24.4560,-81.8770,45.4,6.2,80.0,6.7,'1111122,1111122,1111122' 
NDBC,ioos:station:NOAA.NDBC:SANF1:1,2015-03-01T19:50:00Z,24.4560,-81.8770,45.4,6.2,80.0,6.7,'1111122,1111122,1111122' 
NDBC,ioos:station:NOAA.NDBC:SANF1:1,2015-03-01T20:50:00Z,24.4560,-81.8770,45.4,6.2,80.0,6.7,'1111122,1111122,1111122' 
NDBC,ioos:station:NOAA.NDBC:SANF1:1,2015-03-01T21:50:00Z,24.4560,-81.8770,45.4,6.7,80.0,7.7,'1111122,1111122,1111122' 
NDBC,ioos:station:NOAA.NDBC:SANF1:1,2015-03-01T22:50:00Z,24.4560,-81.8770,45.4,8.8,90.0,9.8,'1111122,1111122,1111122' 
NDBC,ioos:station:NOAA.NDBC:SANF1:1,2015-03-01T23:50:00Z,24.4560,-81.8770,45.4,7.7,80.0,8.8,'1111122,1111122,1111122' 
NDBC,ioos:station:NOAA.NDBC:SANF1:1,2015-03-02T00:50:00Z,24.4560,-81.8770,45.4,8.2,80.0,9.3,'1111122,1111122,1111122' 
NDBC,ioos:station:NOAA.NDBC:SANF1:1,2015-03-02T01:50:00Z,24.4560,-81.8770,45.4,9.3,80.0,10.8,'1111122,1111122,1111122' 
NDBC,ioos:station:NOAA.NDBC:SANF1:1,2015-03-02T02:50:00Z,24.4560,-81.8770,45.4,9.8,80.0,11.3,'1111122,1111122,1111122' 
NDBC,ioos:station:NOAA.NDBC:SANF1:1,2015-03-02T03:50:00Z,24.4560,-81.8770,45.4,8.8,80.0,10.8,'1111122,1111122,1111122' 
NDBC,ioos:station:NOAA.NDBC:SANF1:1,2015-03-02T04:50:00Z,24.4560,-81.8770,45.4,8.8,80.0,9.8,'1111122,1111122,1111122' 
NDBC,ioos:station:NOAA.NDBC:SANF1:1,2015-03-02T05:50:00Z,24.4560,-81.8770,45.4,8.2,70.0,9.8,'1111122,1111122,1111122' 
NDBC,ioos:station:NOAA.NDBC:SANF1:1,2015-03-02T06:50:00Z,24.4560,-81.8770,45.4,6.2,70.0,6.7,'1111122,1111122,1111122' 
NDBC,ioos:station:NOAA.NDBC:SANF1:1,2015-03-02T07:50:00Z,24.4560,-81.8770,45.4,7.7,80.0,8.8,'1111122,1111122,1111122' 
NDBC,ioos:station:NOAA.NDBC:SANF1:1,2015-03-02T08:50:00Z,24.4560,-81.8770,45.4,6.2,80.0,7.2,'1111122,1111122,1111122' 
NDBC,ioos:station:NOAA.NDBC:SANF1:1,2015-03-02T09:50:00Z,24.4560,-81.8770,45.4,6.7,70.0,7.2,'1111122,1111122,1111122' 
NDBC,ioos:station:NOAA.NDBC:SANF1:1,2015-03-02T10:50:00Z,24.4560,-81.8770,45.4,6.7,80.0,7.2,'1111122,1111122,1111122' 
NDBC,ioos:station:NOAA.NDBC:SANF1:1,2015-03-02T11:50:00Z,24.4560,-81.8770,45.4,6.2,70.0,7.7,'1111122,1111122,1111122' 
NDBC,ioos:station:NOAA.NDBC:SANF1:1,2015-03-02T12:50:00Z,24.4560,-81.8770,45.4,6.7,70.0,7.7,'1111122,1111122,1111122' 
NDBC,ioos:station:NOAA.NDBC:SANF1:1,2015-03-02T13:50:00Z,24.4560,-81.8770,45.4,6.7,80.0,7.7,'1111122,1111122,1111122' 
NDBC,ioos:station:NOAA.NDBC:SANF1:1,2015-03-02T14:50:00Z,24.4560,-81.8770,45.4,7.2,80.0,8.8,'1111122,1111122,1111122' 
NDBC,ioos:station:NOAA.NDBC:SANF1:1,2015-03-02T15:50:00Z,24.4560,-81.8770,45.4,7.2,80.0,8.2,'1111122,1111122,1111122' 
NDBC,ioos:station:NOAA.NDBC:SANF1:1,2015-03-02T16:50:00Z,24.4560,-81.8770,45.4,6.7,70.0,8.2,'1111122,1111122,1111122' 
NDBC,ioos:station:NOAA.NDBC:SANF1:1,2015-03-02T17:50:00Z,24.4560,-81.8770,45.4,6.7,80.0,7.7,'1111122,1111122,1111122' 
NDBC,ioos:station:NOAA.NDBC:SANF1:1,2015-03-02T19:50:00Z,24.4560,-81.8770,45.4,6.2,90.0,7.2,'1111122,1111122,1111122' 
NDBC,ioos:station:NOAA.NDBC:SANF1:1,2015-03-02T20:50:00Z,24.4560,-81.8770,45.4,6.7,90.0,7.2,'1111122,1111122,1111122' 
NDBC,ioos:station:NOAA.NDBC:SANF1:1,2015-03-02T21:50:00Z,24.4560,-81.8770,45.4,9.3,90.0,11.3,'1111122,1111122,1111122' 
NDBC,ioos:station:NOAA.NDBC:SANF1:1,2015-03-02T22:50:00Z,24.4560,-81.8770,45.4,6.2,80.0,7.2,'1111122,1111122,1111122' 
NDBC,ioos:station:NOAA.NDBC:SANF1:1,2015-03-02T23:50:00Z,24.4560,-81.8770,45.4,7.2,80.0,7.7,'1111122,1111122,1111122' 
NDBC,ioos:station:NOAA.NDBC:SANF1:1,2015-03-03T00:50:00Z,24.4560,-81.8770,45.4,7.2,80.0,7.7,'1111122,1111122,1111122' 
NDBC,ioos:station:NOAA.NDBC:SANF1:1,2015-03-03T01:50:00Z,24.4560,-81.8770,45.4,8.2,80.0,9.3,'1111122,1111122,1111122' 
NDBC,ioos:station:NOAA.NDBC:SANF1:1,2015-03-03T02:50:00Z,24.4560,-81.8770,45.4,8.8,80.0,9.8,'1111122,1111122,1111122' 
NDBC,ioos:station:NOAA.NDBC:SANF1:1,2015-03-03T03:50:00Z,24.4560,-81.8770,45.4,8.2,70.0,9.3,'1111122,1111122,1111122' 
NDBC,ioos:station:NOAA.NDBC:SANF1:1,2015-03-03T04:50:00Z,24.4560,-81.8770,45.4,8.2,80.0,9.3,'1111122,1111122,1111122' 
NDBC,ioos:station:NOAA.NDBC:SANF1:1,2015-03-03T05:50:00Z,24.4560,-81.8770,45.4,8.2,70.0,9.8,'1111122,1111122,1111122' 
NDBC,ioos:station:NOAA.NDBC:SANF1:1,2015-03-03T06:50:00Z,24.4560,-81.8770,45.4,8.2,70.0,9.8,'1111122,1111122,1111122' 
NDBC,ioos:station:NOAA.NDBC:SANF1:1,2015-03-03T07:50:00Z,24.4560,-81.8770,45.4,9.8,80.0,10.8,'1111122,1111122,1111122' 
NDBC,ioos:station:NOAA.NDBC:SANF1:1,2015-03-03T08:50:00Z,24.4560,-81.8770,45.4,9.3,80.0,10.3,'1111122,1111122,1111122' 
NDBC,ioos:station:NOAA.NDBC:SANF1:1,2015-03-03T09:50:00Z,24.4560,-81.8770,45.4,9.3,80.0,9.8,'1111122,1111122,1111122' 
NDBC,ioos:station:NOAA.NDBC:SANF1:1,2015-03-03T10:50:00Z,24.4560,-81.8770,45.4,8.2,70.0,9.3,'1111122,1111122,1111122' 
NDBC,ioos:station:NOAA.NDBC:SANF1:1,2015-03-03T11:50:00Z,24.4560,-81.8770,45.4,8.2,90.0,9.3,'1111122,1111122,1111122' 
NDBC,ioos:station:NOAA.NDBC:SANF1:1,2015-03-03T12:50:00Z,24.4560,-81.8770,45.4,8.2,90.0,9.8,'1111122,1111122,1111122' 
NDBC,ioos:station:NOAA.NDBC:SANF1:1,2015-03-03T13:50:00Z,24.4560,-81.8770,45.4,8.2,90.0,9.8,'1111122,1111122,1111122' 
NDBC,ioos:station:NOAA.NDBC:SANF1:1,2015-03-03T14:50:00Z,24.4560,-81.8770,45.4,8.2,90.0,9.3,'1111122,1111122,1111122' 
NDBC,ioos:station:NOAA.NDBC:SANF1:1,2015-03-03T16:50:00Z,24.4560,-81.8770,45.4,7.2,90.0,8.8,'1111122,1111122,1111122' 
NDBC,ioos:station:NOAA.NDBC:SANF1:1,2015-03-03T17:50:00Z,24.4560,-81.8770,45.4,7.2,100.0,8.2,'1111122,1111122,1111122' 
NDBC,ioos:station:NOAA.NDBC:SANF1:1,2015-03-03T18:50:00Z,24.4560,-81.8770,45.4,7.2,100.0,8.2,'1111122,1111122,1111122' 
NDBC,ioos:station:NOAA.NDBC:SANF1:1,2015-03-03T19:50:00Z,24.4560,-81.8770,45.4,7.2,100.0,8.2,'1111122,1111122,1111122' 
NDBC,ioos:station:NOAA.NDBC:SANF1:1,2015-03-03T20:50:00Z,24.4560,-81.8770,45.4,7.2,110.0,8.8,'1111122,1111122,1111122' 
NDBC,ioos:station:NOAA.NDBC:SANF1:1,2015-03-03T21:50:00Z,24.4560,-81.8770,45.4,8.2,110.0,9.3,'1111122,1111122,1111122' 
NDBC,ioos:station:NOAA.NDBC:SANF1:1,2015-03-03T23:50:00Z,24.4560,-81.8770,45.4,8.8,90.0,9.8,'1111122,1111122,1111122' 
NDBC,ioos:station:NOAA.NDBC:SANF1:1,2015-03-04T00:50:00Z,24.4560,-81.8770,45.4,8.2,100.0,9.8,'1111122,1111122,1111122' 
NDBC,ioos:station:NOAA.NDBC:SANF1:1,2015-03-04T01:50:00Z,24.4560,-81.8770,45.4,8.8,90.0,9.8,'1111122,1111122,1111122' 
NDBC,ioos:station:NOAA.NDBC:SANF1:1,2015-03-04T02:50:00Z,24.4560,-81.8770,45.4,8.8,100.0,9.8,'1111122,1111122,1111122' 
NDBC,ioos:station:NOAA.NDBC:SANF1:1,2015-03-04T03:50:00Z,24.4560,-81.8770,45.4,8.8,110.0,9.8,'1111122,1111122,1111122' 
NDBC,ioos:station:NOAA.NDBC:SANF1:1,2015-03-04T04:50:00Z,24.4560,-81.8770,45.4,8.2,110.0,9.8,'1111122,1111122,1111122' 
NDBC,ioos:station:NOAA.NDBC:SANF1:1,2015-03-04T05:50:00Z,24.4560,-81.8770,45.4,7.7,120.0,9.3,'1111122,1111122,1111122' 
NDBC,ioos:station:NOAA.NDBC:SANF1:1,2015-03-04T06:50:00Z,24.4560,-81.8770,45.4,9.3,120.0,10.8,'1111122,1111122,1111122' 
NDBC,ioos:station:NOAA.NDBC:SANF1:1,2015-03-04T07:50:00Z,24.4560,-81.8770,45.4,9.3,120.0,10.8,'1111122,1111122,1111122' 
NDBC,ioos:station:NOAA.NDBC:SANF1:1,2015-03-04T08:50:00Z,24.4560,-81.8770,45.4,9.8,120.0,11.3,'1111122,1111122,1111122' 
NDBC,ioos:station:NOAA.NDBC:SANF1:1,2015-03-04T09:50:00Z,24.4560,-81.8770,45.4,8.2,120.0,9.3,'1111122,1111122,1111122' 
NDBC,ioos:station:NOAA.NDBC:SANF1:1,2015-03-04T10:50:00Z,24.4560,-81.8770,45.4,6.7,120.0,7.7,'1111122,1111122,1111122' 
NDBC,ioos:station:NOAA.NDBC:SANF1:1,2015-03-04T11:50:00Z,24.4560,-81.8770,45.4,6.7,110.0,8.2,'1111122,1111122,1111122' 
NDBC,ioos:station:NOAA.NDBC:SANF1:1,2015-03-04T12:50:00Z,24.4560,-81.8770,45.4,4.6,110.0,6.2,'1111122,1111122,1111122' 
NDBC,ioos:station:NOAA.NDBC:SANF1:1,2015-03-04T13:50:00Z,24.4560,-81.8770,45.4,4.6,110.0,7.7,'1111122,1111122,1111122' 
NDBC,ioos:station:NOAA.NDBC:SANF1:1,2015-03-04T14:50:00Z,24.4560,-81.8770,45.4,7.7,130.0,8.8,'1111122,1111122,1111122' 
NDBC,ioos:station:NOAA.NDBC:SANF1:1,2015-03-04T15:50:00Z,24.4560,-81.8770,45.4,8.2,120.0,9.3,'1111122,1111122,1111122' 
NDBC,ioos:station:NOAA.NDBC:SANF1:1,2015-03-04T16:50:00Z,24.4560,-81.8770,45.4,8.2,120.0,9.3,'1111122,1111122,1111122' 
NDBC,ioos:station:NOAA.NDBC:SANF1:1,2015-03-04T17:50:00Z,24.4560,-81.8770,45.4,7.7,120.0,8.8,'1111122,1111122,1111122' 
NDBC,ioos:station:NOAA.NDBC:SANF1:1,2015-03-04T19:50:00Z,24.4560,-81.8770,45.4,8.2,120.0,8.8,'1111122,1111122,1111122' 
NDBC,ioos:station:NOAA.NDBC:SANF1:1,2015-03-04T20:50:00Z,24.4560,-81.8770,45.4,6.7,110.0,7.7,'1111122,1111122,1111122' 
NDBC,ioos:station:NOAA.NDBC:SANF1:1,2015-03-04T21:50:00Z,24.4560,-81.8770,45.4,7.7,100.0,8.8,'1111122,1111122,1111122' 
NDBC,ioos:station:NOAA.NDBC:SANF1:1,2015-03-04T22:50:00Z,24.4560,-81.8770,45.4,7.7,90.0,8.8,'1111122,1111122,1111122' 
NDBC,ioos:station:NOAA.NDBC:SANF1:1,2015-03-04T23:50:00Z,24.4560,-81.8770,45.4,8.8,90.0,10.3,'1111122,1111122,1111122' 
NDBC,ioos:station:NOAA.NDBC:SANF1:1,2015-03-05T00:50:00Z,24.4560,-81.8770,45.4,8.8,90.0,9.8,'1111122,1111122,1111122' 
NDBC,ioos:station:NOAA.NDBC:SANF1:1,2015-03-05T01:50:00Z,24.4560,-81.8770,45.4,8.8,100.0,10.3,'1111122,1111122,1111122' 
NDBC,ioos:station:NOAA.NDBC:SANF1:1,2015-03-05T02:50:00Z,24.4560,-81.8770,45.4,8.8,110.0,10.3,'1111122,1111122,1111122' 
NDBC,ioos:station:NOAA.NDBC:SANF1:1,2015-03-05T03:50:00Z,24.4560,-81.8770,45.4,9.8,110.0,11.3,'1111122,1111122,1111122' 
NDBC,ioos:station:NOAA.NDBC:SANF1:1,2015-03-05T04:50:00Z,24.4560,-81.8770,45.4,9.8,120.0,11.3,'1111122,1111122,1111122' 
NDBC,ioos:station:NOAA.NDBC:SANF1:1,2015-03-05T05:50:00Z,24.4560,-81.8770,45.4,9.3,130.0,10.8,'1111122,1111122,1111122' 
NDBC,ioos:station:NOAA.NDBC:SANF1:1,2015-03-05T06:50:00Z,24.4560,-81.8770,45.4,8.8,130.0,10.3,'1111122,1111122,1111122' 
NDBC,ioos:station:NOAA.NDBC:SANF1:1,2015-03-05T07:50:00Z,24.4560,-81.8770,45.4,8.2,140.0,9.8,'1111122,1111122,1111122' 
NDBC,ioos:station:NOAA.NDBC:SANF1:1,2015-03-05T08:50:00Z,24.4560,-81.8770,45.4,8.2,140.0,9.3,'1111122,1111122,1111122' 
NDBC,ioos:station:NOAA.NDBC:SANF1:1,2015-03-05T09:50:00Z,24.4560,-81.8770,45.4,8.8,140.0,9.8,'1111122,1111122,1111122' 
NDBC,ioos:station:NOAA.NDBC:SANF1:1,2015-03-05T10:50:00Z,24.4560,-81.8770,45.4,8.8,140.0,10.3,'1111122,1111122,1111122' 
NDBC,ioos:station:NOAA.NDBC:SANF1:1,2015-03-05T11:50:00Z,24.4560,-81.8770,45.4,9.3,140.0,10.3,'1111122,1111122,1111122' 
NDBC,ioos:station:NOAA.NDBC:SANF1:1,2015-03-05T12:50:00Z,24.4560,-81.8770,45.4,8.8,140.0,9.8,'1111122,1111122,1111122' 
NDBC,ioos:station:NOAA.NDBC:SANF1:1,2015-03-05T13:50:00Z,24.4560,-81.8770,45.4,8.8,140.0,9.8,'1111122,1111122,1111122' 
NDBC,ioos:station:NOAA.NDBC:SANF1:1,2015-03-05T14:50:00Z,24.4560,-81.8770,45.4,7.2,150.0,8.2,'1111122,1111122,1111122' 
NDBC,ioos:station:NOAA.NDBC:SANF1:1,2015-03-05T15:50:00Z,24.4560,-81.8770,45.4,7.2,150.0,8.2,'1111122,1111122,1111122' 
NDBC,ioos:station:NOAA.NDBC:SANF1:1,2015-03-05T16:50:00Z,24.4560,-81.8770,45.4,5.7,160.0,6.2,'1111122,1111122,1111122' 
NDBC,ioos:station:NOAA.NDBC:SANF1:1,2015-03-05T17:50:00Z,24.4560,-81.8770,45.4,4.6,160.0,5.7,'1111122,1111122,1111122' 
NDBC,ioos:station:NOAA.NDBC:SANF1:1,2015-03-05T18:50:00Z,24.4560,-81.8770,45.4,3.6,150.0,4.1,'1111122,1111122,1111122' 
NDBC,ioos:station:NOAA.NDBC:SANF1:1,2015-03-05T19:50:00Z,24.4560,-81.8770,45.4,4.1,130.0,4.6,'1111122,1111122,1111122' 
NDBC,ioos:station:NOAA.NDBC:SANF1:1,2015-03-05T20:50:00Z,24.4560,-81.8770,45.4,4.6,120.0,5.7,'1111122,1111122,1111122' 
NDBC,ioos:station:NOAA.NDBC:SANF1:1,2015-03-05T21:50:00Z,24.4560,-81.8770,45.4,4.1,100.0,5.1,'1111122,1111122,1111122' 
NDBC,ioos:station:NOAA.NDBC:SANF1:1,2015-03-05T22:50:00Z,24.4560,-81.8770,45.4,4.1,90.0,4.6,'1111122,1111122,1111122' 
NDBC,ioos:station:NOAA.NDBC:SANF1:1,2015-03-05T23:50:00Z,24.4560,-81.8770,45.4,4.1,70.0,4.6,'1111122,1111122,1111122' 
NDBC,ioos:station:NOAA.NDBC:SANF1:1,2015-03-06T00:50:00Z,24.4560,-81.8770,45.4,4.6,70.0,5.1,'1111122,1111122,1111122' 
NDBC,ioos:station:NOAA.NDBC:SANF1:1,2015-03-06T01:50:00Z,24.4560,-81.8770,45.4,4.6,80.0,5.1,'1111122,1111122,1111122' 
NDBC,ioos:station:NOAA.NDBC:SANF1:1,2015-03-06T02:50:00Z,24.4560,-81.8770,45.4,4.1,80.0,5.1,'1111122,1111122,1111122' 
NDBC,ioos:station:NOAA.NDBC:SANF1:1,2015-03-06T03:50:00Z,24.4560,-81.8770,45.4,4.6,80.0,5.1,'1111122,1111122,1111122' 
NDBC,ioos:station:NOAA.NDBC:SANF1:1,2015-03-06T04:50:00Z,24.4560,-81.8770,45.4,4.6,90.0,5.7,'1111122,1111122,1111122' 
NDBC,ioos:station:NOAA.NDBC:SANF1:1,2015-03-06T06:50:00Z,24.4560,-81.8770,45.4,5.7,120.0,6.2,'1111122,1111122,1111122' 
NDBC,ioos:station:NOAA.NDBC:SANF1:1,2015-03-06T07:50:00Z,24.4560,-81.8770,45.4,4.6,110.0,5.1,'1111122,1111122,1111122' 
NDBC,ioos:station:NOAA.NDBC:SANF1:1,2015-03-06T08:50:00Z,24.4560,-81.8770,45.4,4.1,100.0,4.6,'1111122,1111122,1111122' 
NDBC,ioos:station:NOAA.NDBC:SANF1:1,2015-03-06T09:50:00Z,24.4560,-81.8770,45.4,3.6,100.0,4.1,'1111122,1111122,1111122' 
NDBC,ioos:station:NOAA.NDBC:SANF1:1,2015-03-06T10:50:00Z,24.4560,-81.8770,45.4,5.7,100.0,6.2,'1111122,1111122,1111122' 
NDBC,ioos:station:NOAA.NDBC:SANF1:1,2015-03-06T11:50:00Z,24.4560,-81.8770,45.4,3.6,90.0,4.6,'1111122,1111122,1111122' 
NDBC,ioos:station:NOAA.NDBC:SANF1:1,2015-03-06T12:50:00Z,24.4560,-81.8770,45.4,3.6,80.0,4.1,'1111122,1111122,1111122' 
NDBC,ioos:station:NOAA.NDBC:SANF1:1,2015-03-06T13:50:00Z,24.4560,-81.8770,45.4,3.6,70.0,4.1,'1111122,1111122,1111122' 
NDBC,ioos:station:NOAA.NDBC:SANF1:1,2015-03-06T14:50:00Z,24.4560,-81.8770,45.4,3.1,70.0,4.1,'1111122,1111122,1111122' 
NDBC,ioos:station:NOAA.NDBC:SANF1:1,2015-03-06T15:50:00Z,24.4560,-81.8770,45.4,3.1,70.0,3.6,'1111122,1111122,1111122' 
NDBC,ioos:station:NOAA.NDBC:SANF1:1,2015-03-06T17:50:00Z,24.4560,-81.8770,45.4,4.1,80.0,4.6,'1111122,1111122,1111122' 
NDBC,ioos:station:NOAA.NDBC:SANF1:1,2015-03-06T18:50:00Z,24.4560,-81.8770,45.4,3.1,80.0,3.6,'1111122,1111122,1111122' 
NDBC,ioos:station:NOAA.NDBC:SANF1:1,2015-03-06T19:50:00Z,24.4560,-81.8770,45.4,5.7,10.0,6.2,'1111122,1111122,1111122' 
NDBC,ioos:station:NOAA.NDBC:SANF1:1,2015-03-06T20:50:00Z,24.4560,-81.8770,45.4,5.7,20.0,6.7,'1111122,1111122,1111122' 
NDBC,ioos:station:NOAA.NDBC:SANF1:1,2015-03-06T21:50:00Z,24.4560,-81.8770,45.4,3.1,50.0,3.6,'1111122,1111122,1111122' 
NDBC,ioos:station:NOAA.NDBC:SANF1:1,2015-03-06T22:50:00Z,24.4560,-81.8770,45.4,6.7,10.0,7.7,'1111122,1111122,1111122' 
NDBC,ioos:station:NOAA.NDBC:SANF1:1,2015-03-06T23:50:00Z,24.4560,-81.8770,45.4,7.7,10.0,9.3,'1111122,1111122,1111122' 
NDBC,ioos:station:NOAA.NDBC:SANF1:1,2015-03-07T00:50:00Z,24.4560,-81.8770,45.4,6.2,10.0,7.2,'1111122,1111122,1111122' 
NDBC,ioos:station:NOAA.NDBC:SANF1:1,2015-03-07T01:50:00Z,24.4560,-81.8770,45.4,6.7,20.0,7.2,'1111122,1111122,1111122' 
NDBC,ioos:station:NOAA.NDBC:SANF1:1,2015-03-07T02:50:00Z,24.4560,-81.8770,45.4,8.2,360.0,9.8,'1111122,1111122,1111122' 
NDBC,ioos:station:NOAA.NDBC:SANF1:1,2015-03-07T03:50:00Z,24.4560,-81.8770,45.4,9.3,360.0,9.8,'1111122,1111122,1111122' 
NDBC,ioos:station:NOAA.NDBC:SANF1:1,2015-03-07T04:50:00Z,24.4560,-81.8770,45.4,10.3,360.0,11.3,'1111122,1111122,1111122' 
NDBC,ioos:station:NOAA.NDBC:SANF1:1,2015-03-07T05:50:00Z,24.4560,-81.8770,45.4,9.3,10.0,9.8,'1111122,1111122,1111122' 
NDBC,ioos:station:NOAA.NDBC:SANF1:1,2015-03-07T07:50:00Z,24.4560,-81.8770,45.4,6.7,10.0,7.2,'1111122,1111122,1111122' 
NDBC,ioos:station:NOAA.NDBC:SANF1:1,2015-03-07T08:50:00Z,24.4560,-81.8770,45.4,6.2,10.0,7.2,'1111122,1111122,1111122' 
NDBC,ioos:station:NOAA.NDBC:SANF1:1,2015-03-07T09:50:00Z,24.4560,-81.8770,45.4,4.6,20.0,5.7,'1111122,1111122,1111122' 
NDBC,ioos:station:NOAA.NDBC:SANF1:1,2015-03-07T10:50:00Z,24.4560,-81.8770,45.4,4.1,30.0,5.1,'1111122,1111122,1111122' 
NDBC,ioos:station:NOAA.NDBC:SANF1:1,2015-03-07T11:50:00Z,24.4560,-81.8770,45.4,4.6,30.0,5.7,'1111122,1111122,1111122' 
NDBC,ioos:station:NOAA.NDBC:SANF1:1,2015-03-07T12:50:00Z,24.4560,-81.8770,45.4,4.1,20.0,5.7,'1111122,1111122,1111122' 
NDBC,ioos:station:NOAA.NDBC:SANF1:1,2015-03-07T13:50:00Z,24.4560,-81.8770,45.4,7.2,10.0,8.8,'1111122,1111122,1111122' 
NDBC,ioos:station:NOAA.NDBC:SANF1:1,2015-03-07T14:50:00Z,24.4560,-81.8770,45.4,8.8,20.0,9.8,'1111122,1111122,1111122' 
NDBC,ioos:station:NOAA.NDBC:SANF1:1,2015-03-07T15:50:00Z,24.4560,-81.8770,45.4,8.8,20.0,10.3,'1111122,1111122,1111122' 
NDBC,ioos:station:NOAA.NDBC:SANF1:1,2015-03-07T16:50:00Z,24.4560,-81.8770,45.4,6.2,30.0,9.3,'1111122,1111122,1111122' 
NDBC,ioos:station:NOAA.NDBC:SANF1:1,2015-03-07T17:50:00Z,24.4560,-81.8770,45.4,7.7,40.0,9.3,'1111122,1111122,1111122' 
NDBC,ioos:station:NOAA.NDBC:SANF1:1,2015-03-07T18:50:00Z,24.4560,-81.8770,45.4,7.2,20.0,8.2,'1111122,1111122,1111122' 
NDBC,ioos:station:NOAA.NDBC:SANF1:1,2015-03-07T19:50:00Z,24.4560,-81.8770,45.4,7.2,30.0,8.2,'1111122,1111122,1111122' 
NDBC,ioos:station:NOAA.NDBC:SANF1:1,2015-03-07T20:50:00Z,24.4560,-81.8770,45.4,8.8,20.0,9.3,'1111122,1111122,1111122' 
NDBC,ioos:station:NOAA.NDBC:SANF1:1,2015-03-07T21:50:00Z,24.4560,-81.8770,45.4,8.2,20.0,9.8,'1111122,1111122,1111122' 
NDBC,ioos:station:NOAA.NDBC:SANF1:1,2015-03-07T22:50:00Z,24.4560,-81.8770,45.4,8.2,20.0,9.3,'1111122,1111122,1111122' 
NDBC,ioos:station:NOAA.NDBC:SANF1:1,2015-03-07T23:50:00Z,24.4560,-81.8770,45.4,6.7,30.0,7.7,'1111122,1111122,1111122' 
NDBC,ioos:station:NOAA.NDBC:SANF1:1,2015-03-08T00:50:00Z,24.4560,-81.8770,45.4,6.2,30.0,7.2,'1111122,1111122,1111122' 
NDBC,ioos:station:NOAA.NDBC:SANF1:1,2015-03-08T01:50:00Z,24.4560,-81.8770,45.4,6.7,40.0,8.2,'1111122,1111122,1111122' 
NDBC,ioos:station:NOAA.NDBC:SANF1:1,2015-03-08T02:50:00Z,24.4560,-81.8770,45.4,8.2,40.0,9.3,'1111122,1111122,1111122' 
NDBC,ioos:station:NOAA.NDBC:SANF1:1,2015-03-08T03:50:00Z,24.4560,-81.8770,45.4,10.3,60.0,11.3,'1111122,1111122,1111122' 
NDBC,ioos:station:NOAA.NDBC:SANF1:1,2015-03-08T04:50:00Z,24.4560,-81.8770,45.4,9.8,60.0,11.3,'1111122,1111122,1111122' 
NDBC,ioos:station:NOAA.NDBC:SANF1:1,2015-03-08T06:50:00Z,24.4560,-81.8770,45.4,7.2,80.0,8.8,'1111122,1111122,1111122' 
NDBC,ioos:station:NOAA.NDBC:SANF1:1,2015-03-08T07:50:00Z,24.4560,-81.8770,45.4,7.2,90.0,8.2,'1111122,1111122,1111122' 
NDBC,ioos:station:NOAA.NDBC:SANF1:1,2015-03-08T08:50:00Z,24.4560,-81.8770,45.4,7.2,80.0,7.7,'1111122,1111122,1111122' 
NDBC,ioos:station:NOAA.NDBC:SANF1:1,2015-03-08T09:50:00Z,24.4560,-81.8770,45.4,6.2,80.0,7.7,'1111122,1111122,1111122' 
NDBC,ioos:station:NOAA.NDBC:SANF1:1,2015-03-08T10:50:00Z,24.4560,-81.8770,45.4,7.2,90.0,7.7,'1111122,1111122,1111122' 
NDBC,ioos:station:NOAA.NDBC:SANF1:1,2015-03-08T11:50:00Z,24.4560,-81.8770,45.4,5.1,90.0,6.2,'1111122,1111122,1111122' 
NDBC,ioos:station:NOAA.NDBC:SANF1:1,2015-03-08T12:50:00Z,24.4560,-81.8770,45.4,6.2,80.0,7.2,'1111122,1111122,1111122' 
NDBC,ioos:station:NOAA.NDBC:SANF1:1,2015-03-08T13:50:00Z,24.4560,-81.8770,45.4,6.2,50.0,7.2,'1111122,1111122,1111122' 
NDBC,ioos:station:NOAA.NDBC:SANF1:1,2015-03-08T14:50:00Z,24.4560,-81.8770,45.4,6.2,90.0,6.7,'1111122,1111122,1111122' 
NDBC,ioos:station:NOAA.NDBC:SANF1:1,2015-03-08T15:50:00Z,24.4560,-81.8770,45.4,6.2,100.0,7.2,'1111122,1111122,1111122' 
NDBC,ioos:station:NOAA.NDBC:SANF1:1,2015-03-08T16:50:00Z,24.4560,-81.8770,45.4,7.2,100.0,7.7,'1111122,1111122,1111122' 
NDBC,ioos:station:NOAA.NDBC:SANF1:1,2015-03-08T17:50:00Z,24.4560,-81.8770,45.4,6.7,70.0,7.7,'1111122,1111122,1111122' 
NDBC,ioos:station:NOAA.NDBC:SANF1:1,2015-03-08T18:50:00Z,24.4560,-81.8770,45.4,7.7,90.0,8.8,'1111122,1111122,1111122' 
NDBC,ioos:station:NOAA.NDBC:SANF1:1,2015-03-08T19:50:00Z,24.4560,-81.8770,45.4,8.2,80.0,9.3,'1111122,1111122,1111122' 
NDBC,ioos:station:NOAA.NDBC:SANF1:1,2015-03-08T20:50:00Z,24.4560,-81.8770,45.4,8.8,80.0,9.8,'1111122,1111122,1111122' 
NDBC,ioos:station:NOAA.NDBC:SANF1:1,2015-03-08T21:50:00Z,24.4560,-81.8770,45.4,8.2,80.0,9.3,'1111122,1111122,1111122' 
NDBC,ioos:station:NOAA.NDBC:SANF1:1,2015-03-08T22:50:00Z,24.4560,-81.8770,45.4,7.7,80.0,8.8,'1111122,1111122,1111122' 
NDBC,ioos:station:NOAA.NDBC:SANF1:1,2015-03-08T23:50:00Z,24.4560,-81.8770,45.4,8.2,80.0,9.3,'1111122,1111122,1111122' 
NDBC,ioos:station:NOAA.NDBC:SANF1:1,2015-03-09T00:50:00Z,24.4560,-81.8770,45.4,9.8,90.0,11.3,'1111122,1111122,1111122' 
NDBC,ioos:station:NOAA.NDBC:SANF1:1,2015-03-09T01:50:00Z,24.4560,-81.8770,45.4,9.8,80.0,11.3,'1111122,1111122,1111122' 
NDBC,ioos:station:NOAA.NDBC:SANF1:1,2015-03-09T02:50:00Z,24.4560,-81.8770,45.4,10.3,80.0,11.8,'1111122,1111122,1111122' 
NDBC,ioos:station:NOAA.NDBC:SANF1:1,2015-03-09T03:50:00Z,24.4560,-81.8770,45.4,9.8,80.0,11.3,'1111122,1111122,1111122' 
NDBC,ioos:station:NOAA.NDBC:SANF1:1,2015-03-09T04:50:00Z,24.4560,-81.8770,45.4,10.3,90.0,11.3,'1111122,1111122,1111122' 
NDBC,ioos:station:NOAA.NDBC:SANF1:1,2015-03-09T05:50:00Z,24.4560,-81.8770,45.4,10.3,90.0,11.8,'1111122,1111122,1111122' 
NDBC,ioos:station:NOAA.NDBC:SANF1:1,2015-03-09T06:50:00Z,24.4560,-81.8770,45.4,10.3,90.0,11.8,'1111122,1111122,1111122' 
NDBC,ioos:station:NOAA.NDBC:SANF1:1,2015-03-09T07:50:00Z,24.4560,-81.8770,45.4,10.3,80.0,12.4,'1111122,1111122,1111122' 
NDBC,ioos:station:NOAA.NDBC:SANF1:1,2015-03-09T08:50:00Z,24.4560,-81.8770,45.4,11.3,90.0,12.9,'1111122,1111122,1111122' 
NDBC,ioos:station:NOAA.NDBC:SANF1:1,2015-03-09T09:50:00Z,24.4560,-81.8770,45.4,9.8,100.0,11.3,'1111122,1111122,1111122' 
NDBC,ioos:station:NOAA.NDBC:SANF1:1,2015-03-09T10:50:00Z,24.4560,-81.8770,45.4,9.8,100.0,11.3,'1111122,1111122,1111122' 
NDBC,ioos:station:NOAA.NDBC:SANF1:1,2015-03-09T11:50:00Z,24.4560,-81.8770,45.4,9.8,110.0,10.8,'1111122,1111122,1111122' 
NDBC,ioos:station:NOAA.NDBC:SANF1:1,2015-03-09T12:50:00Z,24.4560,-81.8770,45.4,8.2,110.0,10.3,'1111122,1111122,1111122' 
NDBC,ioos:station:NOAA.NDBC:SANF1:1,2015-03-09T13:50:00Z,24.4560,-81.8770,45.4,7.7,110.0,9.8,'1111122,1111122,1111122' 
NDBC,ioos:station:NOAA.NDBC:SANF1:1,2015-03-09T14:50:00Z,24.4560,-81.8770,45.4,7.7,110.0,9.3,'1111122,1111122,1111122' 